Find Starlink 34433

NORAD ID: 64448 Int'l Des: 2025-130 Owner: SPXS Country: US Constellation: starlink operational
LEOCIRCULAR

Aktuelle Ansicht

3D-Globus wird geladen...

Über Starlink 34433

Beschreibung wird geladen...

Nächste Überflüge

Passes for default location (London). Set your location on the main map for personalized predictions.

Höhenverlauf

Loading altitude history...

Zweizeiliger Elementsatz

1 64448U 25130L 26146.25052454 .00021828 00000-0 74677-3 0 9998
2 64448 53.1592 88.5826 0001290 84.1815 275.9333 15.30207737 52575
Epoch: 26. Mai 2026 • Age: 16 hours

Aktueller Status

Höhe 480.8 km
Geschwindigkeit 7.63 km/s
Subsatellitenpunkt 53.31°N, 40.73°W
Startdatum 18. Juni 2025
Alter 0.9 years
Typ internet

Technische Details

Klassifizierung Payload
Masse 575.00 kg
Trockenmasse 530.00 kg
Gesamtmasse 575.00 kg
Länge 0.30 m
Durchmesser 4.10 m
Spannweite 29.00 m
Form Box + pan
Hersteller SPXS
Bus-Typ Starlink V2MO
Phasenstatus In Orbit
Besitzer/Staat SPXS/US

Most Searched